QPF
0.00 0.01 0.04 0.00 0.00 0.00 0.00 0.00 0.00 0.00 0.00 0.00 0.00 0.00 0.00 0.00 0.00 0.00 0.00 0.00 0.01 0.00 0.00 0.00 0.00 0.00 0.00 0.00 0.00 0.00 0.00 0.00 0.00 0.00 0.00 0.00 0.00 0.00 0.00 0.00 0.00 0.00 0.02
0.00 0.00 0.04 0.02 0.00 0.00 0.00 0.00 0.00 0.00 0.00 0.00 0.00 0.00 0.00 0.00 0.00 0.00 0.00 0.00 0.00 0.00 0.00 0.00 0.00 0.00 0.00 0.00 0.00 0.00 0.00 0.00 0.00 0.00 0.00 0.00 0.00 0.00 0.00 0.00 0.01 0.00 0.00
0.00 0.00 0.01 0.03 0.01 0.00 0.00 0.00 0.00 0.00 0.00 0.00 0.00 0.00 0.00 0.00 0.00 0.00 0.00 0.00 0.00 0.00 0.00 0.00 0.00 0.00 0.00 0.00 0.00 0.00 0.00 0.00 0.00 0.00 0.01 0.01 0.02 0.00 0.00 0.00 0.02 0.00 0.00
0.00 0.00 0.00 0.01 0.00 0.00 0.00 0.00 0.00 0.00 0.00 0.00 0.00 0.00 0.00 0.00 0.00 0.00 0.00 0.00 0.00 0.00 0.00 0.00 0.00 0.00 0.00 0.00 0.00 0.00 0.00 0.00 0.00 0.00 0.04 0.07 0.09 0.02 0.00 0.00 0.00 0.00 0.00
0.00 0.00 0.00 0.00 0.00 0.00 0.00 0.00 0.00 0.00 0.00 0.00 0.00 0.00 0.00 0.00 0.00 0.00 0.00 0.00 0.00 0.00 0.00 0.00 0.00 0.00 0.00 0.00 0.00 0.00 0.00 0.00 0.00 0.00 0.03 0.09 0.09 0.02 0.02 0.00 0.00 0.00 0.00
0.00 0.00 0.00 0.00 0.00 0.00 0.00 0.00 0.00 0.00 0.00 0.00 0.00 0.00 0.00 0.00 0.00 0.00 0.00 0.00 0.00 0.00 0.00 0.00 0.00 0.00 0.00 0.00 0.00 0.00 0.00 0.00 0.00 0.00 0.03 0.04 0.03 0.02 0.02 0.00 0.00 0.00 0.00
0.00 0.00 0.00 0.00 0.00 0.00 0.00 0.00 0.00 0.00 0.00 0.00 0.00 0.00 0.00 0.00 0.00 0.00 0.00 0.00 0.00 0.00 0.00 0.00 0.00 0.00 0.00 0.00 0.00 0.00 0.00 0.00 0.00 0.01 0.02 0.02 0.03 0.00 0.00 0.01 0.00 0.00 0.00
0.00 0.00 0.00 0.00 0.00 0.00 0.00 0.00 0.00 0.00 0.00 0.00 0.00 0.00 0.00 0.00 0.00 0.00 0.00 0.00 0.00 0.00 0.00 0.00 0.00 0.00 0.00 0.00 0.00 0.00 0.00 0.00 0.02 0.09 0.15 0.03 0.01 0.01 0.01 0.01 0.01 0.00 0.00
0.00 0.00 0.00 0.00 0.00 0.00 0.00 0.00 0.00 0.00 0.00 0.00 0.00 0.00 0.00 0.00 0.00 0.00 0.00 0.00 0.00 0.00 0.00 0.00 0.00 0.00 0.00 0.00 0.01 0.03 0.06 0.03 0.08 0.10 0.12 0.02 0.01 0.02 0.02 0.01 0.00 0.00 0.00
0.00 0.00 0.00 0.00 0.00 0.00 0.00 0.00 0.00 0.00 0.00 0.00 0.00 0.00 0.00 0.00 0.00 0.00 0.00 0.00 0.00 0.00 0.00 0.00 0.00 0.00 0.02 0.05 0.04 0.06 0.06 0.04 0.16 0.10 0.18 0.08 0.01 0.02 0.01 0.00 0.00 0.00 0.00
0.00 0.00 0.00 0.00 0.00 0.00 0.00 0.00 0.00 0.00 0.00 0.00 0.00 0.00 0.00 0.00 0.00 0.00 0.00 0.00 0.00 0.00 0.00 0.00 0.01 0.04 0.05 0.11 0.06 0.02 0.03 0.05 0.05 0.03 0.11 0.15 0.03 0.01 0.00 0.00 0.00 0.00 0.00
0.00 0.00 0.00 0.00 0.00 0.00 0.00 0.00 0.00 0.00 0.00 0.00 0.00 0.00 0.00 0.00 0.00 0.00 0.00 0.02 0.03 0.00 0.01 0.05 0.05 0.05 0.04 0.10 0.13 0.12 0.10 0.13 0.13 0.09 0.18 0.11 0.17 0.06 0.01 0.01 0.00 0.00 0.00
0.00 0.00 0.00 0.00 0.00 0.00 0.00 0.00 0.00 0.00 0.00 0.00 0.00 0.00 0.00 0.00 0.00 0.00 0.00 0.03 0.06 0.02 0.00 0.05 0.12 0.02 0.07 0.18 0.16 0.25 0.14 0.05 0.03 0.06 0.07 0.05 0.02 0.02 0.05 0.05 0.05 0.05 0.01
0.00 0.00 0.00 0.00 0.00 0.00 0.00 0.00 0.00 0.00 0.00 0.00 0.00 0.00 0.00 0.00 0.00 0.00 0.03 0.06 0.11 0.04 0.02 0.04 0.03 0.02 0.11 0.10 0.03 0.07 0.09 0.06 0.10 0.04 0.01 0.00 0.02 0.05 0.07 0.05 0.05 0.04 0.04
0.00 0.00 0.00 0.00 0.00 0.00 0.00 0.00 0.00 0.00 0.00 0.00 0.00 0.00 0.00 0.00 0.00 0.00 0.02 0.06 0.04 0.04 0.05 0.04 0.01 0.02 0.04 0.07 0.02 0.02 0.05 0.06 0.01 0.03 0.00 0.00 0.02 0.03 0.05 0.03 0.03 0.03 0.02
0.00 0.00 0.00 0.00 0.00 0.00 0.00 0.00 0.00 0.00 0.00 0.00 0.00 0.00 0.00 0.00 0.00 0.00 0.07 0.13 0.12 0.02 0.00 0.00 0.00 0.01 0.14 0.07 0.03 0.01 0.00 0.02 0.02 0.01 0.00 0.00 0.00 0.01 0.01 0.00 0.00 0.02 0.04
0.00 0.00 0.00 0.00 0.00 0.00 0.00 0.00 0.00 0.00 0.00 0.00 0.00 0.00 0.00 0.01 0.00 0.05 0.10 0.07 0.04 0.02 0.00 0.01 0.02 0.05 0.03 0.01 0.00 0.00 0.01 0.00 0.00 0.00 0.00 0.00 0.00 0.00 0.00 0.00 0.00 0.02 0.11
0.00 0.00 0.00 0.00 0.00 0.00 0.00 0.00 0.00 0.00 0.00 0.00 0.01 0.00 0.00 0.00 0.01 0.07 0.13 0.02 0.00 0.01 0.02 0.02 0.02 0.04 0.03 0.00 0.00 0.00 0.00 0.00 0.00 0.00 0.00 0.00 0.00 0.00 0.00 0.00 0.00 0.00 0.00
0.00 0.00 0.00 0.00 0.00 0.00 0.00 0.00 0.00 0.00 0.00 0.00 0.00 0.00 0.01 0.02 0.02 0.04 0.04 0.01 0.00 0.01 0.04 0.04 0.01 0.03 0.00 0.00 0.00 0.00 0.00 0.00 0.00 0.00 0.00 0.00 0.00 0.00 0.00 0.00 0.00 0.00 0.00
0.00 0.00 0.00 0.00 0.00 0.00 0.00 0.00 0.00 0.00 0.00 0.00 0.00 0.00 0.02 0.01 0.00 0.00 0.00 0.00 0.00 0.00 0.01 0.04 0.01 0.03 0.01 0.00 0.00 0.00 0.00 0.00 0.00 0.00 0.00 0.00 0.00 0.00 0.00 0.00 0.00 0.00 0.00
0.00 0.00 0.00 0.00 0.00 0.00 0.00 0.00 0.00 0.00 0.00 0.00 0.00 0.00 0.01 0.00 0.00 0.00 0.00 0.00 0.00 0.00 0.01 0.00 0.01 0.16 0.10 0.01 0.00 0.00 0.00 0.00 0.00 0.00 0.00 0.00 0.00 0.00 0.00 0.00 0.00 0.00 0.00
0.00 0.00 0.00 0.00 0.00 0.00 0.00 0.00 0.00 0.00 0.00 0.00 0.00 0.00 0.00 0.00 0.00 0.01 0.01 0.01 0.02 0.01 0.01 0.03 0.11 0.18 0.06 0.00 0.00 0.00 0.01 0.00 0.01 0.02 0.01 0.00 0.00 0.00 0.00 0.00 0.00 0.00 0.00
0.00 0.00 0.00 0.00 0.00 0.00 0.00 0.00 0.00 0.00 0.00 0.00 0.00 0.00 0.00 0.00 0.00 0.01 0.00 0.00 0.01 0.02 0.01 0.00 0.10 0.39 0.11 0.00 0.00 0.09 0.06 0.07 0.02 0.01 0.02 0.00 0.00 0.00 0.00 0.00 0.00 0.00 0.00
0.00 0.00 0.00 0.00 0.00 0.00 0.00 0.00 0.00 0.00 0.00 0.00 0.00 0.00 0.00 0.00 0.00 0.00 0.00 0.00 0.00 0.03 0.07 0.14 0.24 0.17 0.13 0.02 0.02 0.01 0.08 0.25 0.26 0.03 0.04 0.03 0.00 0.00 0.00 0.00 0.00 0.00 0.00
0.00 0.00 0.00 0.00 0.00 0.00 0.00 0.00 0.00 0.00 0.00 0.00 0.00 0.00 0.00 0.00 0.00 0.00 0.00 0.00 0.00 0.04 0.16 0.16 0.16 0.17 0.08 0.02 0.02 0.01 0.01 0.10 0.12 0.14 0.02 0.02 0.00 0.00 0.00 0.00 0.00 0.00 0.00
0.00 0.00 0.00 0.00 0.00 0.00 0.00 0.00 0.00 0.00 0.00 0.00 0.00 0.00 0.00 0.00 0.00 0.00 0.00 0.00 0.00 0.00 0.01 0.05 0.05 0.03 0.02 0.02 0.04 0.03 0.05 0.17 0.19 0.09 0.08 0.03 0.01 0.00 0.00 0.00 0.00 0.00 0.00
MSLP
1015.76 1015.59 1015.63 1015.80 1015.96 1016.14 1016.29 1016.39 1016.47 1016.59 1016.61 1016.60 1016.68 1016.75 1016.77 1016.96 1017.07 1016.99 1017.02 1017.12 1017.19 1017.34 1017.36 1017.33 1017.36 1017.41 1017.42 1017.41 1017.46 1017.54 1017.52 1017.66 1017.84 1018.06 1018.19 1018.28 1018.42 1018.49 1018.63 1018.75 1018.77 1018.98 1019.09
1015.15 1015.60 1015.82 1015.96 1016.17 1016.35 1016.53 1016.61 1016.68 1016.73 1016.72 1016.78 1016.80 1016.93 1017.08 1017.24 1017.26 1017.30 1017.41 1017.47 1017.51 1017.53 1017.52 1017.56 1017.54 1017.43 1017.33 1017.31 1017.41 1017.51 1017.56 1017.67 1017.87 1018.02 1017.99 1018.24 1018.39 1018.47 1018.49 1018.44 1018.54 1019.06 1019.20
1015.18 1015.55 1015.84 1016.07 1016.31 1016.51 1016.70 1016.83 1016.90 1016.93 1016.95 1017.02 1017.08 1017.18 1017.35 1017.49 1017.52 1017.60 1017.60 1017.53 1017.45 1017.47 1017.49 1017.50 1017.42 1017.34 1017.37 1017.57 1017.66 1017.71 1017.89 1018.06 1018.13 1018.15 1018.22 1018.28 1018.32 1018.49 1018.46 1018.46 1018.61 1018.96 1019.18
1014.98 1015.51 1015.89 1016.12 1016.39 1016.62 1016.79 1016.92 1016.97 1017.03 1017.09 1017.18 1017.23 1017.34 1017.48 1017.57 1017.59 1017.64 1017.55 1017.53 1017.56 1017.58 1017.60 1017.46 1017.34 1017.34 1017.38 1017.44 1017.79 1018.08 1018.19 1018.16 1018.36 1018.33 1018.34 1018.11 1017.69 1018.08 1018.48 1018.51 1018.49 1018.83 1018.98
1014.85 1015.52 1015.95 1016.16 1016.40 1016.64 1016.84 1016.95 1017.03 1017.11 1017.21 1017.28 1017.37 1017.45 1017.47 1017.57 1017.72 1017.72 1017.69 1017.77 1017.76 1017.77 1017.71 1017.51 1017.36 1017.29 1017.31 1017.49 1017.60 1017.84 1018.00 1018.10 1018.19 1018.40 1018.47 1018.20 1018.02 1018.16 1018.24 1018.32 1018.28 1018.46 1018.55
1014.73 1015.51 1015.93 1016.17 1016.43 1016.64 1016.84 1017.00 1017.11 1017.19 1017.27 1017.35 1017.44 1017.40 1017.50 1017.68 1017.74 1017.73 1017.83 1017.94 1017.88 1017.94 1017.79 1017.57 1017.51 1017.32 1017.49 1017.69 1017.89 1017.99 1018.22 1018.05 1017.86 1018.01 1018.40 1018.16 1018.15 1018.16 1017.98 1018.12 1018.02 1018.07 1018.36
1014.86 1015.54 1015.91 1016.14 1016.40 1016.68 1016.88 1017.08 1017.21 1017.29 1017.30 1017.36 1017.35 1017.35 1017.57 1017.65 1017.74 1017.84 1017.86 1017.78 1017.76 1017.87 1017.58 1017.49 1017.59 1017.94 1018.00 1018.00 1018.02 1018.14 1018.11 1017.82 1017.79 1018.09 1018.32 1018.34 1018.28 1017.99 1017.86 1017.93 1017.85 1018.10 1018.31
1014.54 1015.41 1015.83 1016.09 1016.28 1016.60 1016.85 1017.03 1017.18 1017.29 1017.35 1017.38 1017.25 1017.36 1017.48 1017.60 1017.72 1017.70 1017.67 1017.56 1017.60 1017.56 1017.35 1017.52 1017.77 1017.94 1017.96 1018.00 1018.12 1018.02 1017.90 1017.97 1017.93 1017.99 1017.75 1017.75 1017.93 1017.96 1017.68 1017.85 1017.90 1017.86 1017.99
1014.29 1015.20 1015.76 1015.99 1016.25 1016.54 1016.81 1016.99 1017.05 1017.10 1017.14 1017.11 1017.04 1017.14 1017.31 1017.45 1017.53 1017.50 1017.44 1017.29 1017.30 1017.20 1017.27 1017.40 1017.48 1017.61 1017.83 1018.16 1018.05 1017.94 1018.12 1018.14 1017.93 1017.56 1017.53 1017.60 1017.50 1017.89 1017.66 1017.67 1017.72 1017.73 1017.71
1014.27 1014.82 1015.52 1015.86 1016.15 1016.46 1016.66 1016.81 1016.87 1016.84 1016.85 1016.83 1016.86 1017.05 1017.21 1017.22 1017.27 1017.18 1017.02 1016.95 1016.93 1016.84 1017.02 1017.25 1017.07 1017.44 1017.41 1017.59 1017.98 1017.37 1017.50 1017.90 1017.78 1017.41 1017.66 1017.29 1017.25 1017.13 1017.29 1017.41 1017.37 1017.41 1017.54
1014.16 1014.71 1015.10 1015.55 1015.86 1016.29 1016.51 1016.58 1016.60 1016.57 1016.60 1016.60 1016.71 1016.88 1016.91 1017.05 1017.24 1016.78 1016.61 1016.42 1016.36 1016.34 1016.41 1016.42 1016.51 1016.75 1017.06 1017.75 1018.07 1018.26 1018.17 1017.84 1017.11 1017.53 1017.69 1017.50 1017.33 1016.81 1016.62 1016.88 1016.99 1017.09 1017.24
1013.94 1014.40 1014.70 1015.00 1015.46 1015.86 1015.88 1016.11 1016.24 1016.27 1016.32 1016.42 1016.53 1016.69 1016.75 1017.05 1016.76 1016.46 1016.35 1016.18 1016.27 1016.34 1016.19 1016.21 1017.33 1016.97 1016.79 1017.62 1017.08 1017.53 1017.93 1017.37 1017.31 1017.45 1017.94 1017.56 1017.70 1017.20 1016.60 1016.48 1016.66 1016.74 1016.87
1013.29 1013.86 1014.20 1014.60 1014.86 1015.26 1015.27 1015.65 1015.80 1015.93 1016.12 1016.30 1016.39 1016.52 1016.64 1016.54 1016.03 1016.15 1016.16 1016.34 1016.40 1016.13 1016.05 1015.90 1016.70 1016.60 1016.61 1017.22 1017.17 1017.11 1017.10 1017.53 1017.09 1016.59 1016.70 1016.72 1016.76 1016.44 1016.53 1016.06 1016.34 1016.48 1016.69
1012.53 1013.06 1013.55 1013.90 1014.42 1014.66 1014.78 1015.23 1015.15 1015.46 1015.68 1016.05 1016.14 1016.18 1016.31 1016.10 1015.72 1016.02 1016.39 1015.98 1015.93 1015.83 1016.04 1015.65 1015.48 1015.49 1016.06 1016.21 1016.51 1016.66 1016.30 1016.59 1016.63 1016.53 1015.95 1016.04 1016.10 1016.14 1016.14 1016.03 1015.97 1016.12 1016.47
1012.23 1012.55 1013.04 1013.63 1014.17 1014.34 1014.72 1014.84 1014.67 1014.68 1015.02 1015.40 1015.67 1015.86 1015.89 1015.83 1015.82 1015.65 1016.11 1015.91 1015.15 1015.28 1015.46 1015.46 1015.21 1015.55 1015.74 1015.49 1015.15 1015.72 1015.68 1015.65 1015.56 1015.69 1015.35 1015.29 1015.67 1016.00 1016.05 1015.85 1015.77 1015.96 1016.18
1011.74 1012.44 1012.88 1013.39 1013.88 1014.07 1014.41 1014.39 1014.44 1014.45 1014.53 1014.87 1015.42 1015.59 1015.63 1015.66 1015.49 1015.65 1015.99 1015.99 1015.34 1015.05 1014.96 1015.25 1014.52 1015.40 1015.44 1014.97 1014.98 1014.68 1014.54 1014.74 1014.73 1014.81 1015.04 1015.50 1015.83 1015.94 1015.87 1015.84 1015.75 1015.70 1015.92
1011.44 1012.24 1012.88 1013.38 1013.74 1014.35 1014.60 1014.50 1014.52 1014.48 1014.45 1014.78 1015.05 1015.30 1015.44 1015.30 1015.34 1016.02 1016.05 1015.85 1015.70 1015.20 1015.57 1014.90 1015.25 1014.72 1014.84 1014.90 1014.54 1013.89 1013.54 1013.03 1013.73 1014.23 1014.43 1015.10 1015.64 1015.70 1015.56 1015.64 1015.74 1015.69 1015.64
1011.34 1012.14 1012.89 1013.35 1013.91 1014.41 1014.72 1014.63 1014.64 1014.59 1014.49 1014.59 1014.92 1015.17 1015.16 1015.02 1015.17 1015.80 1015.66 1015.21 1014.94 1015.85 1015.30 1015.35 1015.43 1015.22 1015.26 1014.74 1014.46 1013.74 1013.69 1013.21 1013.39 1014.08 1014.38 1014.82 1015.29 1015.36 1015.33 1015.42 1015.69 1015.83 1015.70
1011.22 1011.97 1012.56 1013.08 1013.73 1014.33 1014.72 1014.61 1014.67 1014.49 1014.41 1014.42 1014.81 1014.78 1014.95 1014.91 1014.96 1015.15 1015.20 1015.03 1015.20 1015.69 1015.33 1015.88 1015.42 1015.28 1015.51 1015.05 1014.83 1014.38 1014.06 1013.82 1013.70 1013.73 1014.39 1014.75 1014.94 1015.07 1015.30 1015.28 1015.52 1015.72 1015.70
1011.05 1011.66 1012.30 1013.00 1013.50 1014.00 1014.46 1014.62 1014.61 1014.57 1014.33 1014.18 1014.37 1014.78 1015.07 1014.87 1014.72 1015.15 1015.21 1015.33 1015.57 1016.07 1015.48 1015.66 1014.90 1014.95 1015.17 1015.12 1015.05 1014.54 1013.55 1013.55 1013.88 1014.11 1014.40 1014.42 1014.82 1015.18 1015.59 1015.61 1015.54 1015.61 1015.50
1010.93 1011.68 1012.27 1012.95 1013.39 1013.81 1014.39 1014.64 1014.65 1014.60 1014.18 1014.02 1013.99 1014.50 1014.58 1014.26 1014.54 1014.78 1014.85 1014.77 1014.94 1015.60 1015.34 1015.05 1015.33 1015.42 1015.16 1014.89 1015.29 1014.53 1014.43 1014.19 1014.37 1014.22 1014.29 1014.63 1014.72 1015.11 1015.40 1015.61 1015.52 1015.49 1015.33
1010.72 1011.40 1012.14 1012.70 1013.19 1013.48 1013.95 1014.06 1014.11 1014.15 1014.02 1013.79 1013.55 1014.23 1014.28 1014.25 1014.43 1014.32 1014.75 1015.23 1015.40 1015.51 1016.13 1016.19 1016.41 1016.44 1015.66 1014.76 1015.29 1015.40 1015.62 1015.07 1014.90 1014.81 1014.69 1014.83 1015.01 1015.17 1015.36 1015.39 1015.43 1015.38 1015.33
1010.52 1011.03 1011.68 1012.33 1012.77 1013.04 1013.42 1013.73 1013.95 1014.01 1013.88 1013.68 1013.63 1013.68 1013.89 1013.76 1013.82 1013.77 1013.77 1014.45 1015.34 1015.61 1016.46 1016.43 1015.41 1016.48 1016.82 1015.00 1014.93 1015.78 1016.18 1016.07 1015.59 1015.17 1015.06 1014.99 1015.02 1015.26 1015.47 1015.45 1015.41 1015.26 1014.98
1009.94 1010.50 1011.07 1011.72 1012.27 1012.67 1012.98 1013.45 1013.78 1013.77 1013.97 1013.75 1013.55 1013.44 1013.32 1013.24 1013.41 1013.56 1013.57 1013.70 1014.67 1015.60 1016.37 1016.90 1016.45 1016.55 1017.19 1015.65 1014.91 1015.03 1015.64 1015.81 1015.80 1015.69 1015.10 1015.46 1015.44 1015.46 1015.70 1015.73 1015.60 1015.29 1015.00
1009.08 1009.90 1010.50 1011.15 1011.81 1012.16 1012.58 1012.90 1013.39 1013.61 1013.51 1013.39 1013.39 1013.21 1013.08 1013.13 1012.93 1013.00 1012.96 1013.29 1014.05 1015.32 1015.34 1015.68 1015.90 1016.41 1016.24 1015.28 1015.30 1015.30 1015.41 1015.26 1015.58 1015.85 1015.86 1015.92 1015.82 1015.82 1015.72 1015.77 1015.67 1015.48 1015.01
1008.32 1009.09 1009.94 1010.57 1011.08 1011.57 1011.98 1012.38 1012.90 1013.27 1013.30 1013.45 1013.57 1013.54 1013.37 1013.06 1012.99 1013.09 1012.57 1013.00 1013.51 1014.32 1015.10 1015.24 1015.15 1014.89 1014.99 1014.87 1015.06 1015.22 1015.00 1015.23 1015.48 1015.56 1015.98 1015.78 1015.73 1016.06 1015.64 1015.73 1015.72 1015.51 1015.14
Thickness
5779 5781 5780 5777 5776 5775 5776 5775 5774 5774 5774 5775 5774 5774 5773 5772 5772 5772 5772 5771 5770 5768 5768 5767 5766 5765 5765 5766 5765 5764 5763 5761 5759 5755 5753 5753 5752 5751 5749 5749 5749 5748 5748
5786 5782 5779 5778 5777 5776 5776 5775 5776 5776 5777 5776 5776 5776 5774 5773 5773 5773 5772 5770 5769 5768 5767 5766 5766 5767 5768 5769 5768 5766 5765 5763 5760 5758 5759 5755 5754 5753 5753 5753 5753 5748 5748
5789 5784 5781 5779 5777 5777 5777 5776 5777 5777 5777 5777 5777 5777 5775 5774 5774 5774 5774 5774 5774 5772 5771 5770 5771 5771 5769 5766 5765 5765 5763 5761 5760 5758 5757 5758 5757 5755 5755 5753 5752 5749 5748
5792 5787 5783 5782 5780 5780 5779 5779 5779 5779 5779 5779 5779 5779 5778 5778 5778 5778 5779 5778 5776 5775 5774 5775 5775 5773 5772 5770 5764 5761 5761 5762 5758 5758 5760 5761 5765 5760 5757 5756 5753 5750 5748
5794 5789 5786 5784 5783 5782 5781 5781 5781 5781 5781 5782 5781 5781 5782 5783 5781 5781 5780 5779 5778 5777 5777 5777 5777 5776 5774 5771 5770 5766 5763 5762 5761 5758 5759 5764 5765 5764 5761 5757 5755 5750 5746
5798 5792 5788 5787 5786 5785 5784 5783 5783 5784 5784 5784 5784 5786 5787 5785 5784 5784 5781 5779 5780 5777 5778 5780 5778 5779 5776 5772 5768 5765 5761 5764 5767 5766 5762 5766 5767 5765 5764 5756 5757 5753 5748
5801 5796 5792 5790 5789 5788 5787 5786 5786 5786 5787 5787 5788 5791 5788 5787 5786 5784 5782 5783 5782 5779 5782 5782 5781 5776 5774 5773 5771 5767 5767 5771 5768 5763 5760 5761 5763 5765 5763 5761 5759 5754 5751
5807 5799 5796 5794 5793 5791 5790 5789 5790 5790 5790 5790 5793 5792 5791 5789 5787 5787 5787 5788 5785 5783 5785 5782 5779 5776 5777 5776 5772 5771 5771 5769 5766 5759 5764 5767 5765 5765 5769 5762 5759 5755 5753
5810 5803 5799 5798 5796 5794 5793 5792 5793 5793 5794 5795 5796 5795 5794 5791 5791 5790 5790 5791 5789 5788 5785 5783 5781 5781 5778 5772 5769 5770 5768 5767 5767 5771 5769 5772 5771 5766 5765 5760 5759 5757 5756
5814 5809 5804 5802 5800 5798 5797 5797 5797 5798 5799 5800 5801 5798 5796 5795 5794 5795 5796 5797 5794 5792 5787 5784 5788 5784 5783 5775 5767 5773 5773 5770 5776 5778 5771 5774 5772 5768 5765 5762 5762 5760 5757
5815 5813 5809 5806 5805 5802 5802 5802 5802 5803 5803 5804 5803 5800 5801 5800 5797 5802 5803 5805 5801 5800 5795 5793 5792 5792 5785 5772 5767 5772 5772 5772 5781 5782 5776 5773 5769 5771 5771 5767 5764 5761 5758
5814 5814 5815 5813 5810 5808 5808 5808 5809 5809 5808 5808 5807 5805 5805 5799 5804 5806 5806 5805 5802 5798 5799 5797 5774 5782 5788 5778 5778 5776 5772 5783 5780 5778 5771 5773 5766 5768 5769 5766 5764 5765 5762
5823 5820 5820 5819 5816 5814 5815 5814 5814 5813 5812 5810 5810 5806 5805 5803 5812 5811 5809 5804 5802 5802 5803 5805 5792 5791 5789 5783 5783 5784 5787 5779 5780 5785 5781 5777 5772 5771 5770 5772 5769 5768 5764
5829 5828 5828 5825 5822 5820 5821 5819 5821 5818 5816 5812 5812 5811 5809 5812 5817 5812 5807 5809 5810 5807 5805 5808 5811 5803 5794 5794 5792 5788 5792 5787 5782 5783 5785 5780 5777 5775 5775 5776 5773 5771 5766
5830 5832 5831 5829 5826 5826 5824 5823 5825 5826 5824 5820 5817 5814 5814 5814 5817 5818 5811 5816 5818 5819 5814 5814 5814 5804 5800 5799 5800 5796 5797 5795 5796 5789 5791 5789 5783 5777 5777 5777 5776 5773 5768
5838 5833 5834 5831 5829 5827 5827 5827 5828 5829 5828 5824 5818 5817 5816 5815 5819 5818 5815 5814 5817 5821 5821 5818 5819 5808 5806 5807 5807 5804 5806 5804 5802 5799 5795 5788 5782 5780 5781 5778 5777 5775 5771
5841 5837 5834 5832 5830 5826 5825 5826 5827 5827 5827 5825 5822 5819 5817 5819 5819 5817 5816 5815 5819 5822 5819 5819 5812 5812 5811 5812 5815 5816 5816 5819 5810 5805 5801 5793 5787 5785 5784 5781 5778 5774 5772
5843 5838 5835 5835 5830 5826 5825 5826 5826 5827 5828 5827 5823 5819 5818 5819 5819 5814 5817 5821 5823 5815 5816 5815 5813 5809 5804 5808 5812 5818 5819 5823 5816 5808 5802 5797 5790 5789 5786 5783 5778 5773 5770
5844 5840 5836 5834 5830 5826 5825 5825 5825 5826 5828 5827 5823 5822 5819 5819 5820 5818 5820 5819 5818 5814 5815 5810 5810 5811 5805 5806 5808 5812 5816 5816 5815 5811 5804 5798 5794 5793 5789 5785 5779 5775 5770
5846 5844 5840 5836 5832 5829 5826 5826 5825 5826 5829 5828 5825 5821 5818 5820 5820 5818 5818 5816 5814 5810 5815 5817 5820 5817 5811 5810 5809 5811 5821 5821 5816 5810 5804 5800 5796 5791 5786 5783 5779 5775 5771
5848 5844 5840 5835 5833 5830 5824 5821 5821 5820 5826 5828 5828 5822 5820 5823 5820 5819 5819 5820 5817 5812 5816 5819 5818 5810 5809 5810 5805 5809 5811 5815 5811 5810 5805 5798 5796 5791 5786 5782 5780 5775 5772
5845 5843 5841 5837 5835 5833 5829 5827 5826 5824 5825 5829 5831 5823 5821 5821 5820 5821 5819 5814 5814 5810 5805 5804 5803 5799 5807 5812 5798 5795 5783 5795 5801 5800 5797 5795 5791 5788 5784 5781 5776 5775 5771
5844 5843 5841 5838 5836 5836 5833 5830 5827 5826 5826 5826 5826 5825 5823 5822 5821 5823 5823 5818 5813 5804 5795 5800 5807 5795 5788 5805 5804 5787 5771 5770 5782 5795 5795 5795 5793 5788 5782 5779 5774 5773 5772
5848 5849 5845 5842 5839 5837 5835 5829 5824 5820 5815 5821 5823 5826 5826 5825 5823 5823 5823 5822 5815 5799 5792 5793 5793 5794 5784 5793 5800 5798 5790 5784 5761 5774 5792 5790 5788 5784 5780 5775 5772 5770 5769
5855 5850 5847 5844 5840 5839 5835 5831 5826 5821 5824 5825 5824 5824 5826 5827 5827 5827 5827 5823 5819 5801 5801 5797 5795 5793 5793 5797 5791 5789 5790 5792 5788 5779 5771 5780 5779 5775 5775 5771 5766 5765 5764
5858 5855 5850 5845 5841 5840 5837 5834 5828 5823 5822 5820 5821 5819 5821 5824 5826 5826 5828 5824 5819 5813 5802 5800 5802 5805 5802 5799 5796 5792 5791 5787 5784 5778 5771 5775 5772 5772 5774 5766 5762 5759 5757